GEC846 SKBO-SBEG

Flight info

Callsign GEC846
Flight time 2h 17m
Altitude 35000
Route POVSO5U POVSO UP527 UKEDA
Aircraft MD11/H-SDE1E2E3FGHIJ2J3J4J5M1RWXY/LB1D1

Departure

Time 2026-04-25 02:19
Airport El Dorado International Airport (SKBO)

Arrival

Time 2026-04-25 04:36
Airport Eduardo Gomes International Airport (SBEG)
Time Latitude Longitude Altitude Speed Heading
2026-04-25 01:12 4.69332 -74.14142 8372 ft 0 kts 35°
2026-04-25 01:43 4.69318 -74.14152 8373 ft 4 kts 40°
2026-04-25 01:43 4.69298 -74.14170 8372 ft 4 kts 38°
2026-04-25 01:43 4.69278 -74.14182 8372 ft 4 kts
2026-04-25 01:43 4.69260 -74.14183 8372 ft 4 kts 331°
2026-04-25 01:44 4.69241 -74.14167 8372 ft 4 kts 308°
2026-04-25 01:44 4.69235 -74.14159 8372 ft 4 kts 308°
2026-04-25 01:50 4.69236 -74.14161 8372 ft 0 kts 308°
2026-04-25 01:50 4.69240 -74.14167 8372 ft 3 kts 308°
2026-04-25 01:51 4.69271 -74.14208 8372 ft 11 kts 307°
2026-04-25 01:51 4.69330 -74.14287 8372 ft 17 kts 307°
2026-04-25 01:51 4.69415 -74.14399 8372 ft 21 kts 307°
2026-04-25 01:51 4.69500 -74.14509 8371 ft 20 kts 308°
2026-04-25 01:52 4.69580 -74.14612 8372 ft 18 kts 307°
2026-04-25 01:52 4.69654 -74.14711 8372 ft 17 kts 307°
2026-04-25 01:52 4.69722 -74.14801 8372 ft 16 kts 306°
2026-04-25 01:52 4.69791 -74.14895 8372 ft 17 kts 307°
2026-04-25 01:53 4.69866 -74.14993 8372 ft 18 kts 307°
2026-04-25 01:53 4.69943 -74.15095 8372 ft 19 kts 307°
2026-04-25 01:53 4.70025 -74.15203 8372 ft 20 kts 307°
2026-04-25 01:53 4.70110 -74.15315 8372 ft 21 kts 307°
2026-04-25 01:54 4.70199 -74.15432 8372 ft 21 kts 307°
2026-04-25 01:54 4.70289 -74.15551 8371 ft 22 kts 307°
2026-04-25 01:54 4.70383 -74.15676 8371 ft 23 kts 307°
2026-04-25 01:54 4.70479 -74.15804 8372 ft 23 kts 307°
2026-04-25 01:55 4.70577 -74.15933 8372 ft 23 kts 307°
2026-04-25 01:55 4.70670 -74.16053 8372 ft 21 kts 308°
2026-04-25 01:55 4.70760 -74.16171 8372 ft 21 kts 307°
2026-04-25 01:55 4.70835 -74.16270 8372 ft 15 kts 307°
2026-04-25 01:56 4.70891 -74.16345 8372 ft 13 kts 307°
2026-04-25 01:56 4.70941 -74.16411 8372 ft 7 kts 307°
2026-04-25 01:56 4.70960 -74.16436 8372 ft 0 kts 307°
2026-04-25 01:59 4.70963 -74.16439 8372 ft 2 kts 307°
2026-04-25 01:59 4.70982 -74.16464 8372 ft 7 kts 307°
2026-04-25 01:59 4.71023 -74.16518 8372 ft 12 kts 307°
2026-04-25 01:59 4.71061 -74.16568 8372 ft 0 kts 307°
2026-04-25 02:01 4.71070 -74.16580 8372 ft 4 kts 307°
2026-04-25 02:01 4.71090 -74.16607 8372 ft 0 kts 307°
2026-04-25 02:05 4.71098 -74.16617 8372 ft 3 kts 307°
2026-04-25 02:06 4.71113 -74.16638 8372 ft 0 kts 307°
2026-04-25 02:08 4.71129 -74.16659 8372 ft 7 kts 307°
2026-04-25 02:08 4.71164 -74.16705 8372 ft 8 kts 307°
2026-04-25 02:08 4.71171 -74.16714 8372 ft 0 kts 307°
2026-04-25 02:11 4.71171 -74.16715 8372 ft 1 kts 307°
2026-04-25 02:12 4.71182 -74.16730 8372 ft 5 kts 307°
2026-04-25 02:12 4.71203 -74.16768 8372 ft 6 kts 280°
2026-04-25 02:12 4.71181 -74.16803 8371 ft 6 kts 224°
2026-04-25 02:12 4.71163 -74.16818 8370 ft 0 kts 218°
2026-04-25 02:14 4.71160 -74.16821 8370 ft 3 kts 217°
2026-04-25 02:15 4.71129 -74.16844 8367 ft 9 kts 217°
2026-04-25 02:15 4.71074 -74.16885 8364 ft 7 kts 212°
2026-04-25 02:15 4.71039 -74.16883 8364 ft 4 kts 150°
2026-04-25 02:15 4.71024 -74.16867 8364 ft 0 kts 128°
2026-04-25 02:18 4.71019 -74.16861 8364 ft 10 kts 128°
2026-04-25 02:18 4.70825 -74.16605 8364 ft 83 kts 127°
2026-04-25 02:18 4.70334 -74.15961 8364 ft 147 kts 127°
2026-04-25 02:19 4.69604 -74.15000 8386 ft 192 kts 127°
2026-04-25 02:19 4.68783 -74.13916 8871 ft 196 kts 128°
2026-04-25 02:19 4.67852 -74.12901 9518 ft 198 kts 140°
2026-04-25 02:19 4.66698 -74.12200 10126 ft 196 kts 160°
2026-04-25 02:20 4.65367 -74.11913 10601 ft 196 kts 178°
2026-04-25 02:20 4.64003 -74.12115 10964 ft 200 kts 201°
2026-04-25 02:20 4.62808 -74.12791 11382 ft 200 kts 221°
2026-04-25 02:20 4.61882 -74.13882 11598 ft 212 kts 242°
2026-04-25 02:21 4.61406 -74.15316 11755 ft 221 kts 264°
2026-04-25 02:21 4.61377 -74.16871 11908 ft 229 kts 272°
2026-04-25 02:21 4.61454 -74.18500 12001 ft 240 kts 273°
2026-04-25 02:21 4.61515 -74.20198 12285 ft 246 kts 268°
2026-04-25 02:22 4.61315 -74.21932 12544 ft 256 kts 261°
2026-04-25 02:22 4.60992 -74.23741 12663 ft 268 kts 259°
2026-04-25 02:22 4.60637 -74.25599 12790 ft 280 kts 259°
2026-04-25 02:22 4.60219 -74.27600 12910 ft 303 kts 256°
2026-04-25 02:23 4.59528 -74.29668 13043 ft 331 kts 246°
2026-04-25 02:23 4.58317 -74.31753 13178 ft 358 kts 233°
2026-04-25 02:23 4.56510 -74.33584 13456 ft 377 kts 217°
2026-04-25 02:23 4.54238 -74.34898 14194 ft 383 kts 202°
2026-04-25 02:24 4.51643 -74.35607 14856 ft 389 kts 187°
2026-04-25 02:24 4.48948 -74.35609 15486 ft 394 kts 172°
2026-04-25 02:24 4.46284 -74.34880 16114 ft 399 kts 156°
2026-04-25 02:24 4.43867 -74.33456 16733 ft 405 kts 143°
2026-04-25 02:25 4.41708 -74.31603 17338 ft 410 kts 137°
2026-04-25 02:25 4.39662 -74.29613 17919 ft 414 kts 135°
2026-04-25 02:25 4.37604 -74.27593 18517 ft 419 kts 138°
2026-04-25 02:25 4.35271 -74.25823 19019 ft 421 kts 151°
2026-04-25 02:26 4.32582 -74.24738 19545 ft 422 kts 167°
2026-04-25 02:26 4.29663 -74.24253 20032 ft 425 kts 175°
2026-04-25 02:26 4.26680 -74.24035 20527 ft 428 kts 177°
2026-04-25 02:26 4.23723 -74.23886 21013 ft 432 kts 178°
2026-04-25 02:27 4.20697 -74.23721 21519 ft 435 kts 177°
2026-04-25 02:27 4.17651 -74.23519 22026 ft 438 kts 176°
2026-04-25 02:27 4.14629 -74.23288 22520 ft 442 kts 175°
2026-04-25 02:27 4.11536 -74.23030 22891 ft 445 kts 175°
2026-04-25 02:28 4.08467 -74.22763 23277 ft 447 kts 175°
2026-04-25 02:28 4.05358 -74.22428 23665 ft 450 kts 172°
2026-04-25 02:28 4.02259 -74.21832 23881 ft 452 kts 165°
2026-04-25 02:28 3.99265 -74.20832 23926 ft 453 kts 156°
2026-04-25 02:29 3.96487 -74.19421 23926 ft 453 kts 148°
2026-04-25 02:29 3.93900 -74.17596 23925 ft 452 kts 140°
2026-04-25 02:29 3.91618 -74.15460 23919 ft 452 kts 132°
2026-04-25 02:29 3.89621 -74.12997 24048 ft 452 kts 124°
2026-04-25 02:30 3.87979 -74.10309 24626 ft 452 kts 118°
2026-04-25 02:30 3.86585 -74.07508 25163 ft 453 kts 115°
2026-04-25 02:30 3.85276 -74.04620 25679 ft 455 kts 114°
2026-04-25 02:30 3.83999 -74.01743 26174 ft 458 kts 114°
2026-04-25 02:31 3.82684 -73.98808 26682 ft 460 kts 114°
2026-04-25 02:31 3.81346 -73.95873 27190 ft 462 kts 115°
2026-04-25 02:31 3.80007 -73.92977 27686 ft 464 kts 115°
2026-04-25 02:31 3.78631 -73.90029 28153 ft 466 kts 115°
2026-04-25 02:32 3.77245 -73.87073 28655 ft 468 kts 115°
2026-04-25 02:32 3.75868 -73.84143 29107 ft 471 kts 115°
2026-04-25 02:32 3.74465 -73.81159 29567 ft 473 kts 115°
2026-04-25 02:32 3.73033 -73.78203 30015 ft 475 kts 116°
2026-04-25 02:33 3.71546 -73.75239 30523 ft 474 kts 117°
2026-04-25 02:33 3.70048 -73.72292 31044 ft 472 kts 117°
2026-04-25 02:33 3.68574 -73.69394 31538 ft 470 kts 117°
2026-04-25 02:33 3.67092 -73.66475 32037 ft 468 kts 117°
2026-04-25 02:34 3.65617 -73.63558 32523 ft 465 kts 117°
2026-04-25 02:34 3.64177 -73.60704 32994 ft 463 kts 117°
2026-04-25 02:34 3.62721 -73.57812 33419 ft 462 kts 117°
2026-04-25 02:34 3.61267 -73.54926 33806 ft 461 kts 117°
2026-04-25 02:35 3.59838 -73.52087 34167 ft 459 kts 117°
2026-04-25 02:35 3.58403 -73.49237 34491 ft 457 kts 117°
2026-04-25 02:35 3.56967 -73.46384 34805 ft 457 kts 117°
2026-04-25 02:35 3.55543 -73.43558 35024 ft 459 kts 117°
2026-04-25 02:36 3.54099 -73.40692 35064 ft 460 kts 117°
2026-04-25 02:36 3.51205 -73.34946 35083 ft 461 kts 117°
2026-04-25 02:37 3.48319 -73.29218 35076 ft 465 kts 117°
2026-04-25 02:37 3.45392 -73.23412 35068 ft 468 kts 117°
2026-04-25 02:38 3.42456 -73.17587 35066 ft 468 kts 117°
2026-04-25 02:38 3.39527 -73.11777 35060 ft 468 kts 117°
2026-04-25 02:39 3.36574 -73.05922 35056 ft 469 kts 117°
2026-04-25 02:39 3.33641 -73.00112 35051 ft 469 kts 117°
2026-04-25 02:40 3.30704 -72.94290 35045 ft 469 kts 117°
2026-04-25 02:40 3.27751 -72.88439 35038 ft 469 kts 117°
2026-04-25 02:41 3.24816 -72.82621 35038 ft 469 kts 117°
2026-04-25 02:41 3.21874 -72.76792 35033 ft 469 kts 117°
2026-04-25 02:42 3.18932 -72.70965 35025 ft 469 kts 117°
2026-04-25 02:42 3.15997 -72.65151 35017 ft 469 kts 117°
2026-04-25 02:43 3.13056 -72.59327 35017 ft 468 kts 117°
2026-04-25 02:43 3.10128 -72.53530 35007 ft 467 kts 117°
2026-04-25 02:44 3.07191 -72.47715 35007 ft 467 kts 117°
2026-04-25 02:44 3.04261 -72.41915 35002 ft 466 kts 117°
2026-04-25 02:45 3.01819 -72.37083 34996 ft 466 kts 117°
2026-04-25 02:45 2.98906 -72.31319 34993 ft 465 kts 117°
2026-04-25 02:46 2.95998 -72.25570 34985 ft 465 kts 117°
2026-04-25 02:46 2.93073 -72.19786 34981 ft 464 kts 117°
2026-04-25 02:47 2.90154 -72.14014 34974 ft 464 kts 117°
2026-04-25 02:47 2.87251 -72.08272 34972 ft 464 kts 117°
2026-04-25 02:48 2.84320 -72.02478 34976 ft 464 kts 117°
2026-04-25 02:48 2.81421 -71.96746 34976 ft 463 kts 117°
2026-04-25 02:49 2.78512 -71.90997 34972 ft 463 kts 117°
2026-04-25 02:49 2.75590 -71.85221 34974 ft 464 kts 117°
2026-04-25 02:50 2.72679 -71.79469 34975 ft 464 kts 117°
2026-04-25 02:50 2.69766 -71.73713 34978 ft 465 kts 117°
2026-04-25 02:51 2.66845 -71.67943 34973 ft 465 kts 117°
2026-04-25 02:51 2.63921 -71.62168 34975 ft 465 kts 117°
2026-04-25 02:52 2.60995 -71.56390 34973 ft 466 kts 117°
2026-04-25 02:52 2.58075 -71.50629 34972 ft 466 kts 117°
2026-04-25 02:53 2.55133 -71.44821 34974 ft 467 kts 117°
2026-04-25 02:53 2.52199 -71.39029 34978 ft 468 kts 117°
2026-04-25 02:54 2.49256 -71.33219 34977 ft 468 kts 117°
2026-04-25 02:54 2.46314 -71.27413 34972 ft 469 kts 117°
2026-04-25 02:55 2.43359 -71.21582 34974 ft 470 kts 117°
2026-04-25 02:55 2.40387 -71.15717 34975 ft 471 kts 117°
2026-04-25 02:56 2.37426 -71.09876 34975 ft 472 kts 117°
2026-04-25 02:56 2.34463 -71.04031 34974 ft 473 kts 117°
2026-04-25 02:57 2.31493 -70.98173 34976 ft 474 kts 117°
2026-04-25 02:57 2.28497 -70.92265 34977 ft 475 kts 117°
2026-04-25 02:58 2.25512 -70.86379 34974 ft 476 kts 117°
2026-04-25 02:58 2.22523 -70.80489 34978 ft 476 kts 117°
2026-04-25 02:59 2.19517 -70.74566 34981 ft 476 kts 117°
2026-04-25 02:59 2.16524 -70.68667 34976 ft 477 kts 117°
2026-04-25 03:00 2.13525 -70.62755 34980 ft 477 kts 117°
2026-04-25 03:00 2.10522 -70.56839 34977 ft 477 kts 117°
2026-04-25 03:01 2.07523 -70.50929 34979 ft 477 kts 117°
2026-04-25 03:01 2.04523 -70.45017 34977 ft 478 kts 117°
2026-04-25 03:02 2.01510 -70.39083 34980 ft 477 kts 117°
2026-04-25 03:02 1.98521 -70.33194 34977 ft 478 kts 117°
2026-04-25 03:03 1.95504 -70.27253 34980 ft 478 kts 117°
2026-04-25 03:03 1.92502 -70.21340 34981 ft 478 kts 117°
2026-04-25 03:04 1.89501 -70.15432 34979 ft 478 kts 117°
2026-04-25 03:04 1.86480 -70.09483 34981 ft 477 kts 117°
2026-04-25 03:05 1.81964 -70.00597 34980 ft 477 kts 117°
2026-04-25 03:05 1.78970 -69.94705 34986 ft 477 kts 117°
2026-04-25 03:06 1.75964 -69.88788 34983 ft 477 kts 117°
2026-04-25 03:06 1.72962 -69.82879 34980 ft 478 kts 117°
2026-04-25 03:07 1.69933 -69.76931 34981 ft 478 kts 117°
2026-04-25 03:07 1.66897 -69.71033 34976 ft 478 kts 117°
2026-04-25 03:08 1.63856 -69.65142 34982 ft 478 kts 117°
2026-04-25 03:08 1.60810 -69.59239 34977 ft 478 kts 117°
2026-04-25 03:09 1.57749 -69.53305 34980 ft 478 kts 117°
2026-04-25 03:09 1.54709 -69.47409 34978 ft 477 kts 117°
2026-04-25 03:10 1.51687 -69.41551 34980 ft 477 kts 117°
2026-04-25 03:10 1.48642 -69.35648 34973 ft 476 kts 117°
2026-04-25 03:11 1.45615 -69.29781 34978 ft 476 kts 117°
2026-04-25 03:11 1.42585 -69.23909 34976 ft 475 kts 117°
2026-04-25 03:12 1.39559 -69.18045 34972 ft 475 kts 117°
2026-04-25 03:12 1.36518 -69.12151 34974 ft 475 kts 117°
2026-04-25 03:13 1.33504 -69.06310 34975 ft 474 kts 117°
2026-04-25 03:13 1.30480 -69.00453 34971 ft 474 kts 117°
2026-04-25 03:14 1.27463 -68.94608 34971 ft 474 kts 117°
2026-04-25 03:14 1.24446 -68.88763 34971 ft 473 kts 117°
2026-04-25 03:15 1.21424 -68.82910 34972 ft 473 kts 117°
2026-04-25 03:15 1.18412 -68.77074 34972 ft 473 kts 117°
2026-04-25 03:16 1.15397 -68.71234 34969 ft 472 kts 117°
2026-04-25 03:16 1.12388 -68.65407 34970 ft 472 kts 117°
2026-04-25 03:17 1.09391 -68.59602 34971 ft 471 kts 117°
2026-04-25 03:17 1.06379 -68.53769 34972 ft 470 kts 117°
2026-04-25 03:18 1.03378 -68.47959 34968 ft 470 kts 117°
2026-04-25 03:18 1.00395 -68.42181 34970 ft 470 kts 117°
2026-04-25 03:19 0.97381 -68.36345 34970 ft 470 kts 117°
2026-04-25 03:19 0.94386 -68.30547 34968 ft 470 kts 117°
2026-04-25 03:20 0.91400 -68.24766 34969 ft 470 kts 117°
2026-04-25 03:20 0.88409 -68.18976 34970 ft 470 kts 117°
2026-04-25 03:21 0.85413 -68.13178 34971 ft 470 kts 117°
2026-04-25 03:21 0.82416 -68.07375 34968 ft 469 kts 116°
2026-04-25 03:22 0.79427 -68.01590 34969 ft 469 kts 116°
2026-04-25 03:22 0.76428 -67.95785 34968 ft 469 kts 116°
2026-04-25 03:23 0.73449 -67.90019 34962 ft 469 kts 116°
2026-04-25 03:23 0.70446 -67.84206 34967 ft 468 kts 116°
2026-04-25 03:24 0.67479 -67.78465 34965 ft 468 kts 116°
2026-04-25 03:24 0.64492 -67.72682 34966 ft 468 kts 116°
2026-04-25 03:25 0.61506 -67.66903 34966 ft 468 kts 116°
2026-04-25 03:25 0.58509 -67.61105 34964 ft 468 kts 116°
2026-04-25 03:26 0.55526 -67.55331 34965 ft 468 kts 116°
2026-04-25 03:26 0.52545 -67.49565 34965 ft 468 kts 116°
2026-04-25 03:27 0.49568 -67.43804 34965 ft 468 kts 116°
2026-04-25 03:27 0.47073 -67.38977 34961 ft 468 kts 116°
2026-04-25 03:28 0.44084 -67.33194 34966 ft 468 kts 116°
2026-04-25 03:28 0.40616 -67.26483 34964 ft 468 kts 116°
2026-04-25 03:29 0.38129 -67.21670 34965 ft 467 kts 116°
2026-04-25 03:29 0.35145 -67.15897 34964 ft 468 kts 116°
2026-04-25 03:30 0.32151 -67.10103 34964 ft 468 kts 116°
2026-04-25 03:30 0.29163 -67.04321 34966 ft 469 kts 116°
2026-04-25 03:31 0.26172 -66.98534 34963 ft 469 kts 116°
2026-04-25 03:31 0.23187 -66.92757 34963 ft 469 kts 116°
2026-04-25 03:32 0.20178 -66.86934 34967 ft 470 kts 116°
2026-04-25 03:32 0.17184 -66.81140 34970 ft 470 kts 116°
2026-04-25 03:33 0.14193 -66.75351 34966 ft 470 kts 116°
2026-04-25 03:33 0.11191 -66.69542 34963 ft 471 kts 116°
2026-04-25 03:34 0.08189 -66.63734 34962 ft 471 kts 116°
2026-04-25 03:34 0.05180 -66.57910 34965 ft 471 kts 116°
2026-04-25 03:35 0.02172 -66.52090 34965 ft 471 kts 116°
2026-04-25 03:35 -0.00821 -66.46298 34967 ft 470 kts 116°
2026-04-25 03:36 -0.03824 -66.40488 34967 ft 470 kts 116°
2026-04-25 03:36 -0.06818 -66.34693 34964 ft 470 kts 116°
2026-04-25 03:37 -0.09818 -66.28888 34967 ft 470 kts 116°
2026-04-25 03:37 -0.12810 -66.23099 34963 ft 470 kts 116°
2026-04-25 03:38 -0.15816 -66.17283 34962 ft 470 kts 116°
2026-04-25 03:38 -0.18829 -66.11453 34964 ft 471 kts 116°
2026-04-25 03:39 -0.21824 -66.05657 34959 ft 471 kts 116°
2026-04-25 03:39 -0.24818 -65.99863 34966 ft 471 kts 116°
2026-04-25 03:40 -0.27832 -65.94032 34964 ft 471 kts 116°
2026-04-25 03:40 -0.30825 -65.88240 34964 ft 471 kts 116°
2026-04-25 03:41 -0.33827 -65.82431 34964 ft 471 kts 116°
2026-04-25 03:41 -0.36846 -65.76588 34962 ft 471 kts 116°
2026-04-25 03:42 -0.39841 -65.70794 34957 ft 471 kts 116°
2026-04-25 03:42 -0.42840 -65.64989 34964 ft 471 kts 116°
2026-04-25 03:43 -0.45843 -65.59178 34965 ft 471 kts 116°
2026-04-25 03:43 -0.48860 -65.53339 34962 ft 471 kts 116°
2026-04-25 03:44 -0.51859 -65.47536 34964 ft 471 kts 116°
2026-04-25 03:44 -0.54857 -65.41735 34962 ft 470 kts 116°
2026-04-25 03:45 -0.57868 -65.35912 34961 ft 470 kts 117°
2026-04-25 03:45 -0.60852 -65.30140 34964 ft 470 kts 117°
2026-04-25 03:46 -0.63868 -65.24309 35001 ft 471 kts 117°
2026-04-25 03:46 -0.66876 -65.18502 34966 ft 471 kts 117°
2026-04-25 03:47 -0.69967 -65.12733 34962 ft 471 kts 118°
2026-04-25 03:47 -0.73080 -65.07020 34962 ft 471 kts 118°
2026-04-25 03:48 -0.76211 -65.01272 34965 ft 471 kts 118°
2026-04-25 03:48 -0.79338 -64.95521 34963 ft 471 kts 118°
2026-04-25 03:49 -0.82471 -64.89753 34963 ft 471 kts 118°
2026-04-25 03:49 -0.85598 -64.83996 34957 ft 471 kts 118°
2026-04-25 03:50 -0.88705 -64.78274 34961 ft 471 kts 118°
2026-04-25 03:50 -0.91848 -64.72488 34961 ft 471 kts 118°
2026-04-25 03:51 -0.94964 -64.66750 34965 ft 471 kts 118°
2026-04-25 03:51 -0.98100 -64.60976 34967 ft 471 kts 118°
2026-04-25 03:52 -1.01212 -64.55245 34965 ft 471 kts 118°
2026-04-25 03:52 -1.04337 -64.49490 34959 ft 471 kts 118°
2026-04-25 03:53 -1.07468 -64.43723 34962 ft 471 kts 118°
2026-04-25 03:53 -1.10596 -64.37961 34959 ft 471 kts 118°
2026-04-25 03:54 -1.13718 -64.32211 34963 ft 470 kts 118°
2026-04-25 03:54 -1.16815 -64.26506 34960 ft 470 kts 118°
2026-04-25 03:55 -1.19948 -64.20735 34960 ft 470 kts 118°
2026-04-25 03:55 -1.23045 -64.15030 34959 ft 470 kts 118°
2026-04-25 03:56 -1.26176 -64.09261 34958 ft 470 kts 118°
2026-04-25 03:56 -1.29287 -64.03530 34958 ft 470 kts 118°
2026-04-25 03:57 -1.32399 -63.97795 34955 ft 469 kts 118°
2026-04-25 03:57 -1.35498 -63.92085 34959 ft 469 kts 118°
2026-04-25 03:58 -1.38614 -63.86344 34961 ft 469 kts 118°
2026-04-25 03:58 -1.41713 -63.80632 34958 ft 469 kts 118°
2026-04-25 03:59 -1.44833 -63.74883 34955 ft 469 kts 118°
2026-04-25 03:59 -1.47951 -63.69135 34953 ft 469 kts 118°
2026-04-25 04:00 -1.51046 -63.63426 34955 ft 469 kts 118°
2026-04-25 04:00 -1.54149 -63.57706 34950 ft 468 kts 118°
2026-04-25 04:01 -1.57247 -63.51996 34954 ft 468 kts 118°
2026-04-25 04:01 -1.60350 -63.46274 34954 ft 469 kts 118°
2026-04-25 04:02 -1.63464 -63.40533 34954 ft 469 kts 118°
2026-04-25 04:02 -1.66567 -63.34810 34953 ft 469 kts 118°
2026-04-25 04:03 -1.69670 -63.29088 34950 ft 469 kts 118°
2026-04-25 04:03 -1.72791 -63.23330 34942 ft 469 kts 118°
2026-04-25 04:04 -1.75894 -63.17606 34956 ft 468 kts 117°
2026-04-25 04:04 -1.78690 -63.11730 34954 ft 468 kts 113°
2026-04-25 04:05 -1.81196 -63.05764 34954 ft 468 kts 112°
2026-04-25 04:05 -1.83706 -62.99743 34960 ft 468 kts 112°
2026-04-25 04:06 -1.86248 -62.93717 34946 ft 468 kts 112°
2026-04-25 04:06 -1.88785 -62.87738 34957 ft 468 kts 112°
2026-04-25 04:07 -1.91320 -62.81765 34947 ft 468 kts 112°
2026-04-25 04:07 -1.93862 -62.75775 34952 ft 468 kts 112°
2026-04-25 04:08 -1.96405 -62.69778 34951 ft 468 kts 112°
2026-04-25 04:08 -1.98949 -62.63781 34953 ft 468 kts 112°
2026-04-25 04:09 -2.01485 -62.57809 34953 ft 468 kts 112°
2026-04-25 04:09 -2.04109 -62.51868 34951 ft 469 kts 113°
2026-04-25 04:10 -2.06788 -62.45927 34948 ft 469 kts 113°
2026-04-25 04:10 -2.09465 -62.39990 34954 ft 469 kts 113°
2026-04-25 04:11 -2.13471 -62.31079 34950 ft 469 kts 113°
2026-04-25 04:12 -2.16139 -62.25140 34951 ft 469 kts 113°
2026-04-25 04:12 -2.18811 -62.19191 34950 ft 469 kts 113°
2026-04-25 04:13 -2.21487 -62.13235 34948 ft 469 kts 113°
2026-04-25 04:13 -2.24153 -62.07297 34949 ft 469 kts 113°
2026-04-25 04:14 -2.26836 -62.01322 34947 ft 469 kts 113°
2026-04-25 04:14 -2.29505 -61.95377 34951 ft 469 kts 113°
2026-04-25 04:15 -2.32172 -61.89438 34951 ft 468 kts 113°
2026-04-25 04:15 -2.34832 -61.83510 34950 ft 468 kts 113°
2026-04-25 04:16 -2.37051 -61.78566 34949 ft 468 kts 113°
2026-04-25 04:16 -2.39708 -61.72641 34867 ft 469 kts 113°
2026-04-25 04:16 -2.41058 -61.69631 34090 ft 469 kts 113°
2026-04-25 04:17 -2.42386 -61.66672 33276 ft 470 kts 113°
2026-04-25 04:17 -2.43718 -61.63703 32472 ft 472 kts 113°
2026-04-25 04:17 -2.45076 -61.60675 31769 ft 475 kts 113°
2026-04-25 04:17 -2.46424 -61.57669 31156 ft 478 kts 113°
2026-04-25 04:18 -2.47799 -61.54601 30471 ft 481 kts 113°
2026-04-25 04:18 -2.49170 -61.51546 29757 ft 479 kts 113°
2026-04-25 04:18 -2.50513 -61.48552 29037 ft 475 kts 113°
2026-04-25 04:18 -2.51869 -61.45530 28353 ft 471 kts 113°
2026-04-25 04:19 -2.53206 -61.42551 27705 ft 466 kts 113°
2026-04-25 04:19 -2.54513 -61.39636 27061 ft 462 kts 113°
2026-04-25 04:19 -2.55827 -61.36705 26423 ft 458 kts 113°
2026-04-25 04:19 -2.57120 -61.33822 25797 ft 455 kts 113°
2026-04-25 04:20 -2.58416 -61.30931 25170 ft 451 kts 113°
2026-04-25 04:20 -2.59687 -61.28095 24546 ft 447 kts 113°
2026-04-25 04:20 -2.60958 -61.25258 23946 ft 444 kts 114°
2026-04-25 04:20 -2.62208 -61.22470 23288 ft 440 kts 114°
2026-04-25 04:21 -2.63463 -61.19670 22617 ft 436 kts 114°
2026-04-25 04:21 -2.64688 -61.16936 22000 ft 432 kts 114°
2026-04-25 04:21 -2.65918 -61.14193 21410 ft 429 kts 114°
2026-04-25 04:21 -2.67125 -61.11499 20824 ft 426 kts 114°
2026-04-25 04:22 -2.68339 -61.08788 20230 ft 422 kts 114°
2026-04-25 04:22 -2.69528 -61.06136 19653 ft 419 kts 114°
2026-04-25 04:22 -2.70721 -61.03471 19079 ft 415 kts 114°
2026-04-25 04:22 -2.71888 -61.00865 18511 ft 412 kts 114°
2026-04-25 04:23 -2.73064 -60.98237 17898 ft 409 kts 114°
2026-04-25 04:23 -2.74214 -60.95668 17285 ft 405 kts 114°
2026-04-25 04:23 -2.75369 -60.93089 16711 ft 402 kts 114°
2026-04-25 04:23 -2.76495 -60.90577 16145 ft 399 kts 114°
2026-04-25 04:24 -2.77632 -60.88037 15588 ft 396 kts 114°
2026-04-25 04:24 -2.78747 -60.85547 15043 ft 393 kts 114°
2026-04-25 04:24 -2.79866 -60.83048 14475 ft 390 kts 114°
2026-04-25 04:24 -2.80979 -60.80562 13921 ft 387 kts 114°
2026-04-25 04:25 -2.82068 -60.78131 13325 ft 385 kts 114°
2026-04-25 04:25 -2.83160 -60.75690 12765 ft 381 kts 114°
2026-04-25 04:25 -2.84229 -60.73302 12201 ft 378 kts 114°
2026-04-25 04:25 -2.85301 -60.70907 11677 ft 375 kts 114°
2026-04-25 04:26 -2.86369 -60.68523 11253 ft 372 kts 114°
2026-04-25 04:26 -2.87413 -60.66190 11045 ft 366 kts 114°
2026-04-25 04:26 -2.88426 -60.63928 10924 ft 345 kts 114°
2026-04-25 04:26 -2.89376 -60.61805 10816 ft 328 kts 114°
2026-04-25 04:27 -2.90292 -60.59760 10689 ft 312 kts 114°
2026-04-25 04:27 -2.91150 -60.57843 10564 ft 298 kts 114°
2026-04-25 04:27 -2.91994 -60.55958 10368 ft 293 kts 114°
2026-04-25 04:27 -2.92818 -60.54115 9950 ft 290 kts 114°
2026-04-25 04:28 -2.93644 -60.52270 9427 ft 287 kts 114°
2026-04-25 04:28 -2.94450 -60.50468 8911 ft 285 kts 114°
2026-04-25 04:28 -2.95258 -60.48662 8444 ft 282 kts 113°
2026-04-25 04:28 -2.96060 -60.46869 7954 ft 280 kts 113°
2026-04-25 04:29 -2.96843 -60.45118 7527 ft 278 kts 113°
2026-04-25 04:29 -2.97632 -60.43354 7109 ft 276 kts 113°
2026-04-25 04:29 -2.98420 -60.41592 6684 ft 274 kts 113°
2026-04-25 04:29 -2.99188 -60.39874 6256 ft 272 kts 113°
2026-04-25 04:30 -2.99954 -60.38161 5828 ft 270 kts 113°
2026-04-25 04:30 -3.00722 -60.36445 5440 ft 266 kts 113°
2026-04-25 04:30 -3.01475 -60.34761 5082 ft 265 kts 113°
2026-04-25 04:30 -3.02227 -60.33080 4728 ft 264 kts 113°
2026-04-25 04:31 -3.02964 -60.31430 4362 ft 262 kts 113°
2026-04-25 04:31 -3.03572 -60.29722 4057 ft 258 kts 99°
2026-04-25 04:31 -3.03756 -60.27929 3797 ft 258 kts 93°
2026-04-25 04:31 -3.03824 -60.26164 3479 ft 255 kts 90°
2026-04-25 04:32 -3.03825 -60.24383 3311 ft 255 kts 89°
2026-04-25 04:32 -3.03817 -60.22648 3052 ft 240 kts 89°
2026-04-25 04:32 -3.03816 -60.21096 2972 ft 204 kts 89°
2026-04-25 04:32 -3.03816 -60.19763 2815 ft 183 kts 89°
2026-04-25 04:33 -3.03818 -60.18553 2580 ft 167 kts 89°
2026-04-25 04:33 -3.03820 -60.17416 2380 ft 163 kts 89°
2026-04-25 04:33 -3.03822 -60.16287 2181 ft 160 kts 89°
2026-04-25 04:33 -3.03825 -60.15183 1995 ft 159 kts 90°
2026-04-25 04:34 -3.03828 -60.14073 1797 ft 158 kts 90°
2026-04-25 04:34 -3.03831 -60.13010 1586 ft 151 kts 90°
2026-04-25 04:34 -3.03833 -60.11949 1402 ft 151 kts 90°
2026-04-25 04:34 -3.03837 -60.10912 1185 ft 149 kts 91°
2026-04-25 04:35 -3.03847 -60.09849 1017 ft 155 kts 90°
2026-04-25 04:35 -3.03845 -60.08774 860 ft 154 kts 90°
2026-04-25 04:35 -3.03849 -60.07699 633 ft 154 kts 90°
2026-04-25 04:35 -3.03851 -60.06637 373 ft 153 kts 90°
2026-04-25 04:36 -3.03855 -60.05593 256 ft 137 kts 90°
2026-04-25 04:36 -3.03856 -60.04805 253 ft 90 kts 89°
2026-04-25 04:36 -3.03857 -60.04304 254 ft 59 kts 89°
2026-04-25 04:36 -3.03862 -60.03991 253 ft 32 kts 91°
2026-04-25 04:37 -3.03851 -60.03829 253 ft 16 kts 69°
2026-04-25 04:37 -3.03795 -60.03778 253 ft 8 kts 20°
2026-04-25 04:37 -3.03742 -60.03782 253 ft 12 kts 336°
2026-04-25 04:37 -3.03675 -60.03881 253 ft 22 kts 288°
2026-04-25 04:38 -3.03631 -60.04045 253 ft 27 kts 284°
2026-04-25 04:38 -3.03589 -60.04206 253 ft 20 kts 285°
2026-04-25 04:38 -3.03532 -60.04295 253 ft 13 kts 314°
2026-04-25 04:38 -3.03463 -60.04348 253 ft 12 kts 328°
2026-04-25 04:39 -3.03396 -60.04376 253 ft 10 kts 344°
2026-04-25 04:39 -3.03336 -60.04383 253 ft 7 kts 11°
2026-04-25 04:39 -3.03309 -60.04357 253 ft 6 kts 58°
2026-04-25 04:39 -3.03288 -60.04294 253 ft 11 kts 75°
2026-04-25 04:40 -3.03271 -60.04230 253 ft 6 kts 75°
2026-04-25 04:40 -3.03257 -60.04209 253 ft 2 kts 39°
2026-04-25 04:40 -3.03238 -60.04205 253 ft 3 kts
2026-04-25 04:40 -3.03218 -60.04206 253 ft 3 kts 355°
2026-04-25 04:41 -3.03205 -60.04208 253 ft 2 kts 351°
2026-04-25 04:41 -3.03198 -60.04209 253 ft 0 kts 350°